Tracking 20066 objects as of 7-Dec-2019
HD Live streaming from Space Station
objects crossing your sky now

BLOCK DM-SL R/B

Track BLOCK DM-SL R/B now!


NORAD ID: 39774
Int'l Code: 2014-030B
Perigee: 403.8 km
Apogee: 35,471.6 km
Inclination: 0.7 °
Period: 628.6 minutes
Semi major axis: 24308 km
RCS: Unknown
Launch date: May 26, 2014
Source: Sea Launch (SEAL)
Launch site: SEA LAUNCH (SEAL)

Note: This is a ROCKET BODY
aabbcc
Your satellite tracking list
Your tracking list is empty




NASA's NSSDC Master Catalog

Two Line Element Set (TLE):
1 39774U 14030B   19340.38750584 +.00000002 +00000-0 +63991-4 0  9999
2 39774 000.7396 039.6576 7212999 272.5217 005.8572 02.29065887046181
Source of the keplerian elements: AFSPC